When you browse on this site, cookies collect data to enhance your experience and personalize the content and advertising you see.
Visit our Privacy Policy to learn more. By continuing to use the site, you agree to this use of cookies and data.
  • En España
  • Lista de países
  • Para 7 días
  • Temperatura del agua
  • El tiempo en el mapa
  • Informadores
  • user-avatar
    Iniciar sesión

    Tiempo cada hora Karaganda

    Hoy, 22 Agosto, Jueves

    Tiempo Temperatura Precipitaciones Viento Presión Humedad
    00:00 +15°C° 0.4 mm 5 mps 705 mmHg 90%
    01:00 +15°C° 0.4 mm 4 mps 705 mmHg 92%
    02:00 +14°C° 0.4 mm 4 mps 705 mmHg 93%
    03:00 +14°C° 1.5 mm 4 mps 705 mmHg 92%
    04:00 +13°C° 1.5 mm 4 mps 704 mmHg 92%
    05:00 +13°C° 1.5 mm 4 mps 704 mmHg 91%
    06:00 +13°C° 0.4 mm 5 mps 705 mmHg 88%
    07:00 +13°C° 0.4 mm 6 mps 705 mmHg 85%
    08:00 +13°C° 0.4 mm 6 mps 705 mmHg 83%
    09:00 +12°C° 0.3 mm 7 mps 706 mmHg 81%
    10:00 +12°C° 0.3 mm 7 mps 706 mmHg 80%
    11:00 +12°C° 0.3 mm 7 mps 707 mmHg 78%
    12:00 +12°C° 0 mm 7 mps 707 mmHg 77%
    13:00 +14°C° 0 mm 7 mps 707 mmHg 76%
    14:00 +14°C° 0 mm 7 mps 707 mmHg 75%
    15:00 +14°C° 0 mm 7 mps 708 mmHg 70%
    16:00 +15°C° 0 mm 6 mps 709 mmHg 65%
    17:00 +16°C° 0 mm 5 mps 709 mmHg 60%
    18:00 +15°C° 0.1 mm 4 mps 709 mmHg 64%
    19:00 +14°C° 0.1 mm 4 mps 709 mmHg 68%
    20:00 +13°C° 0.1 mm 3 mps 710 mmHg 72%
    21:00 +12°C° 0 mm 3 mps 710 mmHg 74%
    22:00 +12°C° 0 mm 2 mps 710 mmHg 76%
    23:00 +12°C° 0 mm 2 mps 710 mmHg 78%

    Mañana, 23 Agosto, Viernes

    Tiempo Temperatura Precipitaciones Viento Presión Humedad
    00:00 +10°C° 0 mm 2 mps 710 mmHg 79%
    01:00 +10°C° 0 mm 2 mps 710 mmHg 80%
    02:00 +10°C° 0 mm 1 mps 710 mmHg 82%
    03:00 +10°C° 0 mm 1 mps 711 mmHg 83%
    04:00 +10°C° 0 mm 1 mps 712 mmHg 84%
    05:00 +9°C° 0 mm 1 mps 712 mmHg 85%
    06:00 +11°C° 0 mm 1 mps 712 mmHg 77%
    07:00 +13°C° 0 mm 1 mps 713 mmHg 69%
    08:00 +15°C° 0 mm 1 mps 713 mmHg 60%
    09:00 +16°C° 0 mm 2 mps 714 mmHg 55%
    10:00 +18°C° 0 mm 2 mps 714 mmHg 50%
    11:00 +19°C° 0 mm 2 mps 714 mmHg 44%
    12:00 +20°C° 0 mm 3 mps 714 mmHg 42%
    13:00 +21°C° 0 mm 3 mps 714 mmHg 40%
    14:00 +21°C° 0 mm 3 mps 714 mmHg 38%
    15:00 +21°C° 0 mm 3 mps 714 mmHg 39%
    16:00 +21°C° 0 mm 3 mps 714 mmHg 40%
    17:00 +21°C° 0 mm 4 mps 715 mmHg 41%
    18:00 +20°C° 0 mm 3 mps 714 mmHg 46%
    19:00 +18°C° 0 mm 3 mps 714 mmHg 50%
    20:00 +17°C° 0 mm 3 mps 714 mmHg 55%
    21:00 +16°C° 0 mm 2 mps 714 mmHg 58%
    22:00 +15°C° 0 mm 2 mps 715 mmHg 60%
    23:00 +14°C° 0 mm 1 mps 715 mmHg 63%

    Pasado mañana, 24 Agosto, Sábado

    Tiempo Temperatura Precipitaciones Viento Presión Humedad
    00:00 +14°C° 0 mm 1 mps 715 mmHg 65%
    01:00 +13°C° 0 mm 1 mps 714 mmHg 68%
    02:00 +13°C° 0 mm 1 mps 714 mmHg 70%
    03:00 +12°C° 0 mm 1 mps 714 mmHg 73%
    04:00 +11°C° 0 mm 0 mps 714 mmHg 75%
    05:00 +10°C° 0 mm 0 mps 714 mmHg 78%
    06:00 +13°C° 0 mm 0 mps 715 mmHg 69%
    07:00 +15°C° 0 mm 0 mps 715 mmHg 60%
    08:00 +17°C° 0 mm 0 mps 716 mmHg 50%
    09:00 +18°C° 0 mm 0 mps 716 mmHg 46%
    10:00 +20°C° 0 mm 0 mps 716 mmHg 42%
    11:00 +21°C° 0 mm 0 mps 717 mmHg 38%
    12:00 +24°C° 0 mm 1 mps 716 mmHg 36%
    13:00 +24°C° 0 mm 1 mps 716 mmHg 33%
    14:00 +25°C° 0 mm 1 mps 715 mmHg 31%
    15:00 +25°C° 0 mm 1 mps 715 mmHg 30%
    16:00 +25°C° 0 mm 1 mps 715 mmHg 30%
    17:00 +25°C° 0 mm 2 mps 715 mmHg 30%
    18:00 +24°C° 0 mm 2 mps 715 mmHg 35%
    19:00 +22°C° 0 mm 1 mps 715 mmHg 40%
    20:00 +20°C° 0 mm 1 mps 714 mmHg 45%
    21:00 +19°C° 0 mm 1 mps 714 mmHg 48%
    22:00 +19°C° 0 mm 1 mps 714 mmHg 51%
    23:00 +16°C° 0 mm 0 mps 714 mmHg 54%

    25 Agosto, Domingo

    Tiempo Temperatura Precipitaciones Viento Presión Humedad
    00:00 +16°C° 0 mm 0 mps 714 mmHg 54%
    01:00 +15°C° 0 mm 0 mps 713 mmHg 55%
    02:00 +16°C° 0 mm 1 mps 713 mmHg 55%
    03:00 +16°C° 0 mm 1 mps 713 mmHg 56%
    04:00 +15°C° 0 mm 1 mps 713 mmHg 57%
    05:00 +15°C° 0 mm 1 mps 713 mmHg 58%
    06:00 +18°C° 0 mm 1 mps 713 mmHg 51%
    07:00 +21°C° 0 mm 1 mps 714 mmHg 44%
    08:00 +23°C° 0 mm 1 mps 714 mmHg 37%
    09:00 +24°C° 0 mm 1 mps 714 mmHg 36%
    10:00 +25°C° 0 mm 2 mps 714 mmHg 34%
    11:00 +26°C° 0 mm 2 mps 714 mmHg 33%
    12:00 +27°C° 0 mm 2 mps 714 mmHg 32%
    13:00 +27°C° 0 mm 2 mps 714 mmHg 31%
    14:00 +28°C° 0 mm 3 mps 713 mmHg 30%
    15:00 +27°C° 0 mm 3 mps 713 mmHg 31%
    16:00 +27°C° 0 mm 3 mps 713 mmHg 33%
    17:00 +27°C° 0 mm 4 mps 713 mmHg 34%
    18:00 +25°C° 0 mm 4 mps 713 mmHg 42%
    19:00 +22°C° 0 mm 4 mps 713 mmHg 49%
    20:00 +21°C° 0 mm 4 mps 713 mmHg 56%
    21:00 +20°C° 0 mm 3 mps 713 mmHg 60%
    22:00 +19°C° 0 mm 3 mps 713 mmHg 65%
    23:00 +18°C° 0 mm 3 mps 713 mmHg 69%

    26 Agosto, Lunes

    Tiempo Temperatura Precipitaciones Viento Presión Humedad
    00:00 +18°C° 0 mm 3 mps 713 mmHg 71%
    01:00 +17°C° 0 mm 2 mps 712 mmHg 73%
    02:00 +17°C° 0 mm 2 mps 712 mmHg 75%
    03:00 +16°C° 0 mm 2 mps 712 mmHg 76%
    04:00 +16°C° 0 mm 2 mps 712 mmHg 77%
    05:00 +16°C° 0 mm 2 mps 712 mmHg 78%
    06:00 +18°C° 0 mm 2 mps 712 mmHg 68%
    07:00 +20°C° 0 mm 2 mps 712 mmHg 59%
    08:00 +23°C° 0 mm 2 mps 712 mmHg 50%
    09:00 +24°C° 0 mm 2 mps 712 mmHg 44%
    10:00 +26°C° 0 mm 1 mps 712 mmHg 38%
    11:00 +27°C° 0 mm 1 mps 712 mmHg 33%
    12:00 +28°C° 0 mm 1 mps 712 mmHg 30%
    13:00 +28°C° 0 mm 1 mps 711 mmHg 28%
    14:00 +29°C° 0 mm 1 mps 711 mmHg 26%
    15:00 +29°C° 0 mm 1 mps 711 mmHg 25%
    16:00 +29°C° 0 mm 1 mps 710 mmHg 25%
    17:00 +29°C° 0 mm 1 mps 710 mmHg 24%
    18:00 +27°C° 0 mm 1 mps 709 mmHg 28%
    19:00 +26°C° 0 mm 2 mps 709 mmHg 31%
    20:00 +24°C° 0 mm 2 mps 709 mmHg 34%
    21:00 +23°C° 0 mm 2 mps 708 mmHg 35%
    22:00 +21°C° 0 mm 2 mps 708 mmHg 36%
    23:00 +21°C° 0 mm 2 mps 707 mmHg 38%

    27 Agosto, Martes

    Tiempo Temperatura Precipitaciones Viento Presión Humedad
    00:00 +21°C° 0 mm 3 mps 707 mmHg 39%
    01:00 +20°C° 0 mm 3 mps 706 mmHg 40%
    02:00 +20°C° 0 mm 3 mps 706 mmHg 41%
    03:00 +20°C° 0 mm 4 mps 706 mmHg 43%
    04:00 +20°C° 0 mm 4 mps 705 mmHg 45%
    05:00 +19°C° 0 mm 5 mps 705 mmHg 47%
    06:00 +21°C° 0 mm 6 mps 705 mmHg 43%
    07:00 +23°C° 0 mm 6 mps 705 mmHg 39%
    08:00 +24°C° 0 mm 7 mps 705 mmHg 35%
    09:00 +27°C° 0 mm 7 mps 705 mmHg 32%
    10:00 +29°C° 0 mm 7 mps 704 mmHg 28%
    11:00 +31°C° 0 mm 8 mps 704 mmHg 24%
    12:00 +30°C° 0 mm 7 mps 704 mmHg 24%
    13:00 +30°C° 0 mm 7 mps 704 mmHg 24%
    14:00 +30°C° 0 mm 6 mps 703 mmHg 24%
    15:00 +27°C° 0.1 mm 7 mps 703 mmHg 33%
    16:00 +24°C° 0.1 mm 7 mps 703 mmHg 41%
    17:00 +21°C° 0.1 mm 7 mps 703 mmHg 50%
    18:00 +20°C° 0.3 mm 6 mps 703 mmHg 58%
    19:00 +19°C° 0.3 mm 4 mps 703 mmHg 66%
    20:00 +18°C° 0.3 mm 2 mps 703 mmHg 73%
    21:00 +17°C° 0.3 mm 3 mps 703 mmHg 78%
    22:00 +17°C° 0.3 mm 4 mps 703 mmHg 82%
    23:00 +15°C° 0.3 mm 5 mps 704 mmHg 87%
    Mostrar más